星链-1269 (STARLINK-1269 )

导读 | 星芒AI

STARLINK-1269 是 SpaceX Starlink 项目中的一颗低轨通信卫星,属于第 12 批发射的 Starlink 卫星群。该卫星于 2021 年 11 月 19 日由猎鹰 9 号火箭从美国卡纳维拉尔角发射升空。它运行在约 550 公里的高度,旨在为全球提供高速互联网服务。STARLINK-1269 采用先进的推进和通信技术,支持自动避撞功能,并可在任务结束后主动脱离轨道,减少太空垃圾。该卫星是 SpaceX 构建全球宽带网络计划的重要组成部分。

基本信息
目录编号:
45197
目录名称:
STARLINK-1269
国际标识:
2020-012V
轨道中心:
EARTH
卫星名称:
星链-1269
卫星全名:
星链-1269 (STARLINK-1269 )
卫星状态:
在轨 (已飞行2128 天)
发射日期:
2020-02-17 UTC
国别 :
美国 (US)
星等 :
--
轨道信息
数据来源 国际轨道数据
星历时间: 2025-12-14T22:37:43+0800
1天前
查看轨道信息
半长轴: 6925.401km
偏心率: 0.0001509
轨道倾角: 53.057°
近地点辐角 89.269°
升交点赤经 68.558°
平近点角 270.848°
近地点: 546.22km
远地点: 548.312km
周期: 95.593分钟
每日圈数: 15.06383
详细信息
固有亮度:
5
最大亮度:
2.5
卫星平台:
Starlink V1.0
覆盖范围:
全球
运营商:
太空探索技术公司
运营商所在国:
美国
制造商(研发单位):
太空探索技术公司
制造商所在国:
美国
使用方式:
暂无
卫星简介
星链(Starlink)计划是由太空探索技术公司(SpaceX)提出的一个巨型低轨卫星互联网星座项目,计划在2019年至2024年间在太空搭建由约1.2万颗卫星组成的“星链”网络,其中1584颗将部署在地球上空550千米处的近地轨道,并从2020年开始工作。该卫星仍在工作。
2D轨道图
3D轨道图
轨道高度分析图
轨道倾角分析图
轨道综合分析图
查看轨道综合分析图